Weather History for Graham, TX

Change the Weather History Date:

Monday, October 7, 2013

  Actual Average (KMWL) Record (KMWL)
Temperature  
Mean Temperature 62 °F -  
Max Temperature 82 °F 78 °F 100 °F (2014)
Min Temperature 42 °F 56 °F 41 °F (2000)
Degree Days  
Heating Degree Days 3    
Growing Degree Days 12 (Base 50)    
Moisture  
Dew Point 40 °F    
Average Humidity 52    
Maximum Humidity 91    
Minimum Humidity 19    
Precipitation  
Precipitation 0.00 in - - ()
Sea Level Pressure  
Sea Level Pressure 30.12 in    
Wind  
Wind Speed 1 mph (NNE)    
Max Wind Speed 7 mph    
Max Gust Speed -    
Visibility 10 miles    
Events      
Averages and records for this station are not official NWS values.
T = Trace of Precipitation, MM = Missing Value Source: NWS Daily Summary

Daily Weather History Graph

Daily Weather History Graph

Search for Another Location

Airport:

Trip Planner

Search our weather history database for the weather conditions in past years. The results will help you decide how hot, cold, wet, or windy it might be!

Date:

Astronomy

Oct. 07, 2013 Rise Set
Actual Time 7:32 AM CDT 7:10 PM CDT
Civil Twilight 7:08 AM CDT 7:35 PM CDT
Nautical Twilight 6:39 AM CDT 8:03 PM CDT
Astronomical Twilight 6:10 AM CDT 8:32 PM CDT
Moon 10:14 AM CDT (10/7) 9:06 PM CDT (10/7)
Length of Visible Light 12h 27m
Length of Day
11h 37m
Waxing Crescent, 9% of the Moon is Illuminated
Oct 7
Waxing Crescent
Oct 11
First Quarter
Oct 18
Full
Oct 26
Last Quarter
Nov 3
New

Hourly Weather History & Observations

Time (CDT) Temp. Dew Point Humidity Pressure Visibility Wind Dir Wind Speed Gust Speed Precip Events Conditions
12:15 AM 50.0 °F 41.9 °F 74% 30.11 in 10.0 mi Calm Calm - N/A   Clear
12:35 AM 48.4 °F 42.4 °F 80% 30.11 in 7.0 mi Calm Calm - N/A   Clear
12:55 AM 48.2 °F 42.3 °F 80% 30.11 in 10.0 mi Calm Calm - N/A   Clear
1:15 AM 47.7 °F 41.7 °F 80% 30.11 in 10.0 mi Calm Calm - N/A   Clear
1:35 AM 47.5 °F 41.4 °F 79% 30.11 in 10.0 mi ENE 3.5 mph - N/A   Clear
1:55 AM 47.7 °F 41.5 °F 79% 30.12 in 7.0 mi Calm Calm - N/A   Clear
2:15 AM 47.1 °F 41.5 °F 81% 30.12 in 7.0 mi Calm Calm - N/A   Clear
2:35 AM 47.3 °F 41.4 °F 80% 30.12 in 10.0 mi Calm Calm - N/A   Clear
2:55 AM 47.1 °F 41.7 °F 81% 30.12 in 10.0 mi Calm Calm - N/A   Clear
3:15 AM 45.5 °F 41.4 °F 85% 30.12 in 10.0 mi Calm Calm - N/A   Clear
3:35 AM 45.9 °F 41.9 °F 86% 30.11 in 10.0 mi Calm Calm - N/A   Clear
3:55 AM 45.5 °F 41.4 °F 85% 30.11 in 10.0 mi Calm Calm - N/A   Clear
4:15 AM 45.7 °F 41.2 °F 84% 30.12 in 10.0 mi Calm Calm - N/A   Clear
4:35 AM 45.0 °F 40.8 °F 85% 30.12 in 10.0 mi Calm Calm - N/A   Clear
4:55 AM 44.1 °F 41.0 °F 89% 30.12 in 10.0 mi Calm Calm - N/A   Clear
5:15 AM 44.2 °F 41.2 °F 89% 30.12 in 10.0 mi Calm Calm - N/A   Clear
5:35 AM 43.9 °F 40.6 °F 88% 30.12 in 10.0 mi Calm Calm - N/A   Clear
5:55 AM 43.9 °F 40.5 °F 88% 30.13 in 10.0 mi Calm Calm - N/A   Clear
6:15 AM 43.7 °F 40.5 °F 88% 30.13 in 10.0 mi Calm Calm - N/A   Clear
6:35 AM 43.7 °F 40.5 °F 88% 30.13 in 10.0 mi Calm Calm - N/A   Clear
6:55 AM 43.3 °F 40.3 °F 89% 30.13 in 10.0 mi Calm Calm - N/A   Clear
7:15 AM 42.8 °F 40.5 °F 91% 30.13 in 10.0 mi Calm Calm - N/A   Clear
7:35 AM 42.6 °F 40.3 °F 91% 30.14 in 10.0 mi Calm Calm - N/A   Clear
7:55 AM 43.7 °F 40.6 °F 89% 30.14 in 10.0 mi Calm Calm - N/A   Clear
8:15 AM 45.9 °F 42.1 °F 87% 30.15 in 10.0 mi Calm Calm - N/A   Clear
8:35 AM 49.5 °F 43.3 °F 79% 30.16 in 10.0 mi Calm Calm - N/A   Clear
8:55 AM 52.5 °F 43.3 °F 71% 30.16 in 5.0 mi Calm Calm - N/A   Haze
9:15 AM 54.9 °F 43.2 °F 65% 30.16 in 10.0 mi Calm Calm - N/A   Clear
9:35 AM 58.3 °F 43.5 °F 58% 30.16 in 10.0 mi Calm Calm - N/A   Clear
9:55 AM 61.5 °F 40.3 °F 46% 30.17 in 10.0 mi Calm Calm - N/A   Clear
10:15 AM 63.9 °F 41.4 °F 44% 30.17 in 10.0 mi Calm Calm - N/A   Clear
10:35 AM 66.4 °F 41.7 °F 41% 30.18 in 10.0 mi Calm Calm - N/A   Clear
10:55 AM 70.7 °F 40.5 °F 33% 30.18 in 10.0 mi Calm Calm - N/A   Clear
11:15 AM 73.2 °F 40.5 °F 31% 30.17 in 10.0 mi Calm Calm - N/A   Clear
11:35 AM 76.1 °F 38.3 °F 26% 30.17 in 10.0 mi Calm Calm - N/A   Clear
11:55 AM 77.5 °F 36.7 °F 23% 30.17 in 10.0 mi Calm Calm - N/A   Clear
12:15 PM 78.1 °F 36.3 °F 22% 30.16 in 10.0 mi NNE 5.8 mph - N/A   Clear
12:35 PM 78.8 °F 34.9 °F 20% 30.16 in 10.0 mi Calm Calm - N/A   Clear
12:55 PM 79.3 °F 36.1 °F 21% 30.15 in 10.0 mi North 5.8 mph - N/A   Clear
1:15 PM 79.9 °F 36.1 °F 21% 30.14 in 10.0 mi NE 5.8 mph - N/A   Clear
1:35 PM 80.6 °F 37.0 °F 21% 30.13 in 10.0 mi NE 4.6 mph - N/A   Clear
1:55 PM 80.6 °F 36.7 °F 21% 30.12 in 10.0 mi Calm Calm - N/A   Clear
2:15 PM 81.1 °F 36.5 °F 20% 30.12 in 10.0 mi North 6.9 mph - N/A   Clear
2:35 PM 81.5 °F 36.9 °F 20% 30.11 in 10.0 mi North 5.8 mph - N/A   Clear
2:55 PM 81.7 °F 36.3 °F 20% 30.10 in 10.0 mi Calm Calm - N/A   Clear
3:15 PM 82.0 °F 36.5 °F 20% 30.09 in 10.0 mi North 4.6 mph - N/A   Clear
3:35 PM 82.2 °F 36.9 °F 20% 30.09 in 10.0 mi NNE 6.9 mph - N/A   Clear
3:55 PM 82.6 °F 36.9 °F 19% 30.08 in 10.0 mi North 5.8 mph - N/A   Clear
4:15 PM 81.7 °F 36.0 °F 19% 30.08 in 10.0 mi North 4.6 mph - N/A   Clear
4:35 PM 82.0 °F 36.9 °F 20% 30.08 in 10.0 mi NE 4.6 mph - N/A   Clear
4:55 PM 82.4 °F 37.2 °F 20% 30.07 in 7.0 mi NE 5.8 mph - N/A   Clear
5:15 PM 81.7 °F 37.2 °F 20% 30.07 in 7.0 mi North 4.6 mph - N/A   Clear
5:35 PM 81.5 °F 37.4 °F 21% 30.07 in 10.0 mi NNE 4.6 mph - N/A   Clear
5:55 PM 80.6 °F 37.2 °F 21% 30.07 in 10.0 mi Calm Calm - N/A   Clear
6:15 PM 79.7 °F 37.8 °F 22% 30.07 in 10.0 mi NNE 3.5 mph - N/A   Clear
6:35 PM 78.3 °F 38.8 °F 24% 30.07 in 10.0 mi Calm Calm - N/A   Clear
6:55 PM 76.1 °F 39.2 °F 26% 30.07 in 10.0 mi Calm Calm - N/A   Clear
7:15 PM 73.0 °F 39.4 °F 30% 30.07 in 10.0 mi Calm Calm - N/A   Clear
7:35 PM 70.9 °F 40.6 °F 33% 30.07 in 10.0 mi Calm Calm - N/A   Clear
7:55 PM 68.9 °F 41.0 °F 36% 30.07 in 10.0 mi Calm Calm - N/A   Clear
8:15 PM 67.1 °F 42.8 °F 41% 30.08 in 10.0 mi Calm Calm - N/A   Clear
8:35 PM 64.4 °F 44.6 °F 49% 30.08 in 10.0 mi ENE 5.8 mph - N/A   Clear
8:55 PM 62.8 °F 44.6 °F 51% 30.08 in 7.0 mi ENE 3.5 mph - N/A   Clear
9:15 PM 61.2 °F 44.6 °F 54% 30.09 in 10.0 mi ENE 3.5 mph - N/A   Clear
9:35 PM 61.0 °F 42.6 °F 51% 30.09 in 10.0 mi East 4.6 mph - N/A   Clear
9:55 PM 59.9 °F 42.6 °F 53% 30.10 in 10.0 mi Calm Calm - N/A   Clear
10:15 PM 59.4 °F 42.1 °F 53% 30.10 in 10.0 mi Calm Calm - N/A   Clear
10:35 PM 59.4 °F 40.8 °F 50% 30.10 in 10.0 mi Calm Calm - N/A   Clear
10:55 PM 58.1 °F 40.3 °F 52% 30.10 in 10.0 mi Calm Calm - N/A   Clear
11:15 PM 58.5 °F 39.6 °F 49% 30.10 in 10.0 mi Calm Calm - N/A   Clear
11:35 PM 57.9 °F 39.4 °F 50% 30.10 in 10.0 mi Calm Calm - N/A   Clear
11:55 PM 57.6 °F 39.2 °F 50% 30.09 in 10.0 mi Calm Calm - N/A   Clear